When you browse on this site, cookies collect data to enhance your experience and personalize the content and advertising you see.
Visit our Privacy Policy to learn more. By continuing to use the site, you agree to this use of cookies and data.
  • In France
  • List of Countries
  • For 7 days
  • Water Temperature
  • Weather Map
  • Weather Widgets
  • user-avatar
    Login

    Hourly Weather Zadabrow

    Today, 15 October, Tuesday

    Time Temperature Precipitation Wind Pressure Humidity
    00:00 +15°C° 0 mm 2 mps 745 mmHg 75%
    01:00 +15°C° 0 mm 2 mps 745 mmHg 75%
    02:00 +14°C° 0 mm 2 mps 745 mmHg 77%
    03:00 +14°C° 0 mm 2 mps 745 mmHg 79%
    04:00 +12°C° 0 mm 3 mps 744 mmHg 81%
    05:00 +12°C° 0 mm 3 mps 744 mmHg 80%
    06:00 +12°C° 0 mm 4 mps 744 mmHg 79%
    07:00 +12°C° 0 mm 4 mps 744 mmHg 78%
    08:00 +14°C° 0 mm 4 mps 744 mmHg 72%
    09:00 +16°C° 0 mm 5 mps 743 mmHg 66%
    10:00 +19°C° 0 mm 5 mps 743 mmHg 59%
    11:00 +20°C° 0 mm 5 mps 743 mmHg 57%
    12:00 +21°C° 0 mm 5 mps 742 mmHg 55%
    13:00 +22°C° 0 mm 5 mps 742 mmHg 53%
    14:00 +21°C° 0 mm 4 mps 742 mmHg 55%
    15:00 +21°C° 0 mm 4 mps 741 mmHg 58%
    16:00 +20°C° 0 mm 4 mps 741 mmHg 61%
    17:00 +19°C° 0 mm 4 mps 741 mmHg 63%
    18:00 +18°C° 0 mm 4 mps 741 mmHg 65%
    19:00 +17°C° 0 mm 5 mps 741 mmHg 67%
    20:00 +16°C° 0 mm 5 mps 741 mmHg 69%
    21:00 +15°C° 0 mm 5 mps 741 mmHg 70%
    22:00 +15°C° 0 mm 4 mps 740 mmHg 72%
    23:00 +15°C° 0 mm 4 mps 740 mmHg 73%

    Tomorrow, 16 October, Wednesday

    Time Temperature Precipitation Wind Pressure Humidity
    00:00 +14°C° 0 mm 4 mps 740 mmHg 75%
    01:00 +14°C° 0 mm 4 mps 740 mmHg 77%
    02:00 +14°C° 0 mm 4 mps 740 mmHg 76%
    03:00 +14°C° 0 mm 4 mps 740 mmHg 75%
    04:00 +14°C° 0 mm 4 mps 740 mmHg 74%
    05:00 +14°C° 0 mm 4 mps 740 mmHg 74%
    06:00 +14°C° 0 mm 5 mps 740 mmHg 75%
    07:00 +14°C° 0 mm 5 mps 741 mmHg 75%
    08:00 +16°C° 0 mm 6 mps 741 mmHg 72%
    09:00 +17°C° 0 mm 6 mps 742 mmHg 68%
    10:00 +18°C° 0 mm 7 mps 743 mmHg 65%
    11:00 +18°C° 0 mm 7 mps 743 mmHg 63%
    12:00 +19°C° 0 mm 6 mps 743 mmHg 61%
    13:00 +19°C° 0 mm 6 mps 743 mmHg 58%
    14:00 +17°C° 0 mm 6 mps 743 mmHg 60%
    15:00 +16°C° 0 mm 5 mps 743 mmHg 61%
    16:00 +17°C° 0 mm 4 mps 743 mmHg 62%
    17:00 +15°C° 0 mm 4 mps 744 mmHg 64%
    18:00 +13°C° 0 mm 3 mps 744 mmHg 66%
    19:00 +12°C° 0 mm 3 mps 744 mmHg 67%
    20:00 +12°C° 0 mm 3 mps 744 mmHg 69%
    21:00 +12°C° 0 mm 3 mps 745 mmHg 70%
    22:00 +11°C° 0 mm 4 mps 745 mmHg 72%
    23:00 +11°C° 0 mm 4 mps 745 mmHg 73%

    Day after tomorrow, 17 October, Thursday

    Time Temperature Precipitation Wind Pressure Humidity
    00:00 +11°C° 0 mm 4 mps 745 mmHg 73%
    01:00 +10°C° 0 mm 4 mps 745 mmHg 74%
    02:00 +10°C° 0 mm 4 mps 745 mmHg 74%
    03:00 +10°C° 0 mm 4 mps 745 mmHg 74%
    04:00 +10°C° 0 mm 4 mps 745 mmHg 74%
    05:00 +10°C° 0 mm 4 mps 746 mmHg 73%
    06:00 +10°C° 0 mm 4 mps 746 mmHg 73%
    07:00 +10°C° 0 mm 4 mps 746 mmHg 73%
    08:00 +12°C° 0 mm 4 mps 746 mmHg 68%
    09:00 +13°C° 0 mm 4 mps 746 mmHg 63%
    10:00 +15°C° 0 mm 4 mps 746 mmHg 57%
    11:00 +17°C° 0 mm 4 mps 746 mmHg 56%
    12:00 +17°C° 0 mm 4 mps 746 mmHg 55%
    13:00 +18°C° 0 mm 4 mps 746 mmHg 54%
    14:00 +18°C° 0 mm 3 mps 746 mmHg 58%
    15:00 +17°C° 0 mm 2 mps 746 mmHg 62%
    16:00 +16°C° 0 mm 2 mps 746 mmHg 65%
    17:00 +15°C° 0 mm 1 mps 746 mmHg 67%
    18:00 +15°C° 0 mm 1 mps 747 mmHg 69%
    19:00 +14°C° 0 mm 1 mps 747 mmHg 71%
    20:00 +14°C° 0 mm 1 mps 747 mmHg 71%
    21:00 +13°C° 0 mm 1 mps 747 mmHg 72%
    22:00 +13°C° 0 mm 1 mps 747 mmHg 72%
    23:00 +13°C° 0 mm 1 mps 747 mmHg 72%

    18 October, Friday

    Time Temperature Precipitation Wind Pressure Humidity
    00:00 +13°C° 0 mm 1 mps 747 mmHg 72%
    01:00 +13°C° 0 mm 1 mps 747 mmHg 71%
    02:00 +13°C° 0 mm 1 mps 747 mmHg 72%
    03:00 +13°C° 0 mm 1 mps 747 mmHg 72%
    04:00 +13°C° 0 mm 1 mps 747 mmHg 72%
    05:00 +13°C° 0 mm 1 mps 747 mmHg 73%
    06:00 +13°C° 0 mm 1 mps 747 mmHg 73%
    07:00 +13°C° 0 mm 1 mps 747 mmHg 74%
    08:00 +14°C° 0 mm 1 mps 747 mmHg 70%
    09:00 +15°C° 0 mm 1 mps 748 mmHg 66%
    10:00 +18°C° 0 mm 1 mps 748 mmHg 61%
    11:00 +18°C° 0 mm 1 mps 747 mmHg 59%
    12:00 +19°C° 0 mm 1 mps 747 mmHg 57%
    13:00 +19°C° 0 mm 1 mps 747 mmHg 55%
    14:00 +18°C° 0 mm 1 mps 747 mmHg 58%
    15:00 +18°C° 0 mm 1 mps 747 mmHg 61%
    16:00 +16°C° 0 mm 1 mps 747 mmHg 64%
    17:00 +15°C° 0 mm 1 mps 747 mmHg 66%
    18:00 +15°C° 0 mm 1 mps 747 mmHg 69%
    19:00 +14°C° 0 mm 1 mps 747 mmHg 71%
    20:00 +14°C° 0 mm 1 mps 747 mmHg 73%
    21:00 +13°C° 0 mm 1 mps 747 mmHg 74%
    22:00 +13°C° 0 mm 1 mps 747 mmHg 76%
    23:00 +13°C° 0 mm 1 mps 747 mmHg 78%

    19 October, Saturday

    Time Temperature Precipitation Wind Pressure Humidity
    00:00 +12°C° 0 mm 1 mps 747 mmHg 80%
    01:00 +12°C° 0 mm 1 mps 747 mmHg 82%
    02:00 +12°C° 0 mm 1 mps 747 mmHg 84%
    03:00 +12°C° 0 mm 1 mps 747 mmHg 86%
    04:00 +12°C° 0 mm 1 mps 747 mmHg 88%
    05:00 +12°C° 0 mm 1 mps 747 mmHg 88%
    06:00 +12°C° 0 mm 1 mps 747 mmHg 87%
    07:00 +13°C° 0 mm 1 mps 747 mmHg 87%
    08:00 +14°C° 0 mm 2 mps 747 mmHg 81%
    09:00 +16°C° 0 mm 2 mps 747 mmHg 75%
    10:00 +17°C° 0 mm 2 mps 747 mmHg 70%
    11:00 +18°C° 0 mm 2 mps 746 mmHg 67%
    12:00 +19°C° 0 mm 2 mps 746 mmHg 64%
    13:00 +20°C° 0 mm 1 mps 746 mmHg 61%
    14:00 +20°C° 0 mm 1 mps 746 mmHg 64%
    15:00 +19°C° 0 mm 1 mps 746 mmHg 67%
    16:00 +19°C° 0 mm 1 mps 745 mmHg 69%
    17:00 +17°C° 0 mm 2 mps 745 mmHg 72%
    18:00 +16°C° 0 mm 2 mps 745 mmHg 74%
    19:00 +15°C° 0 mm 2 mps 745 mmHg 77%
    20:00 +15°C° 0 mm 2 mps 745 mmHg 78%
    21:00 +15°C° 0 mm 2 mps 745 mmHg 80%
    22:00 +14°C° 0 mm 2 mps 745 mmHg 81%
    23:00 +13°C° 0 mm 3 mps 745 mmHg 81%

    20 October, Sunday

    Time Temperature Precipitation Wind Pressure Humidity
    00:00 +13°C° 0 mm 3 mps 744 mmHg 81%
    01:00 +13°C° 0 mm 3 mps 744 mmHg 81%
    02:00 +13°C° 0 mm 3 mps 744 mmHg 80%
    03:00 +13°C° 0 mm 3 mps 744 mmHg 80%
    04:00 +12°C° 0 mm 4 mps 743 mmHg 79%
    05:00 +13°C° 0 mm 4 mps 743 mmHg 77%
    06:00 +13°C° 0 mm 4 mps 743 mmHg 75%
    07:00 +13°C° 0 mm 5 mps 743 mmHg 73%
    08:00 +15°C° 0 mm 5 mps 743 mmHg 66%
    09:00 +17°C° 0 mm 6 mps 743 mmHg 59%
    10:00 +20°C° 0 mm 6 mps 743 mmHg 52%
    11:00 +21°C° 0 mm 6 mps 743 mmHg 49%
    12:00 +22°C° 0 mm 6 mps 743 mmHg 46%
    13:00 +23°C° 0 mm 7 mps 743 mmHg 43%
    14:00 +22°C° 0 mm 6 mps 742 mmHg 47%
    15:00 +21°C° 0 mm 5 mps 742 mmHg 51%
    16:00 +20°C° 0 mm 4 mps 742 mmHg 55%
    17:00 +19°C° 0 mm 4 mps 742 mmHg 58%
    18:00 +18°C° 0 mm 4 mps 743 mmHg 60%
    19:00 +17°C° 0 mm 3 mps 743 mmHg 63%
    20:00 +17°C° 0 mm 3 mps 743 mmHg 65%
    21:00 +16°C° 0 mm 3 mps 743 mmHg 67%
    22:00 +16°C° 0 mm 2 mps 743 mmHg 69%
    23:00 +16°C° 0 mm 2 mps 743 mmHg 69%
    Show more